Voltar ao catálogo

ARIANE 42P+ DEB

AtivoHEO
NORAD 34195·DEBRIS·🇫🇷 France

Lançado Oct 28, 1992 de Guiana Space Centre

Loading…

Próximas Passagens (próximas 24 horas)

TLE

AtualizadoSource: Space-Track

Época: Sep 14, 2026, 12:48 UTC

1 34195U 92072AB  26257.53336206 -.00000023  00000-0  12580-2 0  9996
2 34195   5.6836 323.8660 6573870 202.4915 128.2664  2.94852412142293

Acompanhe ARIANE 42P+ DEB em tempo real com AllMySat

Download on the App Store